Wind_Speed
12 13 13 14 14 15 15 16 17 17 18 18 18 16 16 14 13 12 11 11 10 10 9 9 8 10 4 3 5 1 0 3 4 6 7 3 4 2 2 2 3 4 4 4 9 12 11
12 13 14 14 15 15 16 16 17 18 18 18 19 19 17 16 14 13 11 11 10 8 7 7 6 6 1 2 2 2 2 3 3 4 3 3 2 1 0 2 1 2 6 15 9 6 6
12 13 14 15 15 16 16 17 17 18 19 19 20 20 20 18 17 14 13 11 10 8 6 4 4 3 1 9 3 3 3 3 2 1 1 1 3 2 1 2 2 4 7 7 3 3 4
13 13 14 15 15 16 17 18 19 20 21 22 22 21 22 20 18 14 13 12 10 6 4 3 2 1 5 3 4 5 5 2 1 1 2 1 2 2 2 4 3 3 1 6 5 4 2
13 13 14 15 16 17 18 19 20 21 23 24 25 23 23 23 21 14 15 13 7 4 3 2 1 2 7 2 3 1 3 1 1 3 1 3 2 1 2 2 3 4 4 4 9 1 3
14 16 18 18 19 19 19 20 20 21 23 25 26 23 23 23 19 14 15 7 1 1 1 1 1 2 3 1 1 1 1 1 2 2 2 3 3 2 2 4 3 6 5 4 8 5 2
15 15 15 16 15 16 17 18 20 22 23 24 25 24 25 25 16 14 14 3 5 2 1 5 1 2 2 3 2 1 2 3 2 5 2 2 3 3 4 5 5 3 4 7 9 5 5
13 13 13 14 15 16 17 18 19 20 21 24 25 24 24 25 12 13 8 5 3 2 7 3 5 5 6 2 1 1 3 1 2 2 3 4 3 3 4 5 5 5 5 7 6 3 4
12 11 12 14 16 18 18 19 20 21 22 23 24 24 24 24 6 9 10 5 3 1 2 5 4 3 2 4 2 2 4 2 1 1 2 4 3 3 3 5 3 4 4 4 5 7 2
13 14 13 15 17 18 19 21 22 22 23 23 23 23 22 20 2 9 3 8 4 1 4 3 1 1 2 2 1 2 3 3 1 2 2 5 3 2 4 4 2 5 5 2 8 3 2
16 17 18 19 19 20 21 21 22 23 24 24 23 21 21 12 7 2 2 6 4 1 5 1 2 2 1 2 0 2 1 3 3 2 1 5 1 2 3 2 3 9 5 4 1 1 2
16 17 17 18 19 21 21 22 23 24 24 23 22 20 21 9 9 3 6 3 1 6 6 1 2 2 1 1 2 1 1 2 1 0 2 7 2 3 4 3 4 7 4 2 2 1 2
15 16 18 18 19 20 21 23 24 25 26 24 20 19 18 9 3 5 5 1 5 4 2 2 3 1 0 3 2 4 2 2 3 3 3 4 3 2 2 4 0 6 6 4 5 4 3
15 15 16 18 20 22 24 26 26 27 27 24 21 18 10 9 8 5 0 5 3 7 6 0 2 1 4 4 3 2 0 3 3 3 2 2 7 4 2 2 1 4 2 3 3 3 5
15 16 16 17 20 21 25 27 28 30 30 26 19 9 3 2 0 3 4 3 8 8 4 4 2 3 3 3 3 1 5 4 6 9 6 4 5 2 1 0 2 1 2 2 1 0 1
14 17 16 17 19 22 24 26 28 31 33 21 15 7 4 4 2 1 4 7 6 4 0 2 7 7 6 5 4 4 4 3 3 6 0 3 3 1 1 2 3 0 5 1 2 3 5
14 14 15 17 19 20 24 27 29 30 33 21 5 3 7 3 2 4 3 6 5 4 2 4 4 4 6 3 5 4 4 2 3 4 2 4 2 4 0 4 6 1 0 3 3 2 2
13 14 16 18 19 20 24 27 29 31 31 15 6 2 11 4 3 1 2 4 6 4 2 3 2 5 5 2 3 4 6 5 2 6 6 4 4 3 8 0 1 1 4 4 4 3 2
12 14 16 17 19 21 23 26 29 31 27 9 2 3 5 5 1 2 6 5 3 5 5 5 3 1 2 3 3 5 3 3 4 5 5 5 1 2 6 3 2 3 3 3 3 2 5
13 13 13 16 19 22 23 26 29 32 25 4 3 3 4 4 1 2 4 4 5 7 2 4 4 5 4 2 3 3 2 4 1 1 2 4 4 6 6 5 3 4 4 5 4 3 4
11 12 14 15 16 18 22 24 27 31 17 7 4 1 2 3 3 5 3 2 4 5 5 9 4 10 5 4 4 1 5 6 3 4 2 3 5 5 6 7 3 4 6 9 9 9 8
13 14 16 16 16 16 17 20 23 26 22 8 3 4 4 3 4 4 2 4 4 6 4 4 5 10 4 4 2 4 6 2 5 4 1 2 3 1 4 7 8 9 10 17 13 17 13
13 13 13 13 15 16 16 16 18 19 21 7 6 5 1 4 5 3 3 5 5 6 1 6 9 10 9 6 5 10 11 13 14 10 4 2 1 2 6 3 6 9 17 18 12 6 6
13 14 15 14 14 15 15 15 15 14 13 7 4 2 2 3 2 2 6 5 5 4 6 10 9 3 3 13 14 11 14 19 20 19 15 7 5 4 5 1 14 8 5 3 10 8 14
13 13 15 16 15 15 16 15 15 15 13 9 4 1 1 3 2 8 2 2 5 7 3 4 4 2 12 6 4 6 3 3 8 16 16 19 11 6 5 6 14 14 17 7 7 7 9
14 15 15 16 17 16 16 17 16 16 15 12 10 6 3 1 4 4 1 4 2 2 4 4 5 15 4 2 3 3 4 3 4 1 6 6 8 9 3 4 6 5 4 2 6 4 14
14 15 15 16 16 16 16 17 17 17 17 15 7 8 4 3 5 6 5 4 3 1 2 4 5 7 1 2 3 3 4 4 4 4 4 5 3 15 13 10 8 6 5 4 0 6 3
14 15 16 17 18 18 18 17 19 19 19 17 15 12 11 3 5 10 7 5 1 3 3 3 4 1 2 2 3 2 2 3 4 5 3 6 6 5 6 8 12 6 5 7 4 0 2
16 16 17 19 20 20 20 19 19 18 19 19 19 18 15 11 3 6 16 32 25 21 3 3 4 3 3 1 1 2 4 4 3 4 6 4 2 4 4 4 4 5 7 6 5 4 4
Wind_Direction
38 31 31 25 24 20 17 14 12 9 9 5 5 4 2 358 349 343 337 327 316 311 308 305 315 337 359 9 250 214 318 2 7 17 41 41 44 58 1 318 307 208 272 261 253 278 276
37 32 31 26 22 19 16 14 9 6 5 7 6 6 360 355 349 343 339 335 326 312 306 302 308 336 54 301 199 205 283 342 9 30 42 47 115 138 192 262 221 284 280 282 284 272 256
34 32 31 27 21 19 15 11 9 8 7 7 7 5 1 355 349 340 334 328 322 314 300 289 301 342 95 239 211 238 280 318 330 342 68 176 139 87 118 279 305 305 315 307 240 220 273
34 31 31 28 25 20 16 14 14 12 11 9 5 1 358 353 347 338 332 322 313 295 284 272 295 346 245 241 257 274 276 305 340 297 227 250 174 107 165 305 342 338 43 340 287 318 294
39 34 35 35 28 22 17 15 13 13 11 9 4 0 357 352 344 339 332 322 308 265 247 247 235 132 276 296 267 271 241 184 55 86 84 120 98 103 37 9 359 12 287 287 313 199 268
49 42 37 32 28 22 16 13 10 6 4 2 0 359 355 352 347 343 335 332 349 196 184 161 127 26 260 203 278 253 277 186 102 65 54 43 45 28 41 59 299 289 312 275 265 286 247
40 30 23 20 15 9 3 1 358 355 353 353 355 356 355 352 347 349 347 326 10 357 109 208 200 261 284 319 287 148 141 112 73 60 358 6 28 273 259 202 228 258 236 255 276 272 288
32 26 25 14 360 355 354 354 354 352 348 349 351 352 353 352 348 0 9 65 102 285 311 272 244 290 267 237 328 158 164 104 64 291 332 360 243 209 268 250 226 218 264 274 283 252 310
8 3 2 358 354 354 358 359 353 349 346 348 349 350 351 353 360 10 42 52 344 351 275 300 208 196 195 164 221 225 153 123 139 256 200 217 250 314 240 300 305 243 212 254 268 316 239
25 23 10 2 3 2 2 359 356 351 345 343 344 347 350 357 30 359 41 351 340 12 38 272 236 204 109 128 259 191 177 141 200 260 274 227 290 294 298 267 116 301 204 258 294 351 312
31 25 20 16 13 11 8 4 355 349 343 337 338 342 343 353 318 295 306 330 317 112 11 238 184 158 141 188 291 225 179 79 208 216 89 265 257 348 290 245 165 251 326 273 179 210 26
23 18 17 14 11 7 4 2 358 351 343 331 329 334 334 335 306 278 321 332 252 43 261 327 153 207 316 164 236 108 163 73 95 211 230 255 285 221 235 285 205 293 329 101 78 116 34
25 19 14 11 10 5 6 358 351 346 340 334 326 324 318 299 266 304 321 65 34 136 313 246 244 168 204 231 246 176 199 216 198 26 327 315 243 251 223 315 195 7 32 352 358 2 262
18 15 11 10 12 6 2 356 352 348 342 335 326 320 309 277 269 280 330 47 142 241 233 103 145 137 227 164 237 208 252 282 220 112 117 125 324 181 188 226 284 33 99 130 307 321 295
24 20 19 17 11 8 2 356 353 348 344 338 330 326 342 348 326 232 81 94 208 211 208 183 149 198 245 183 196 225 215 226 216 179 177 155 273 245 173 59 116 137 46 167 154 177 348
23 23 19 14 9 3 2 1 357 352 346 346 334 337 13 0 152 112 83 226 231 225 288 130 193 182 225 206 183 176 200 197 238 192 203 197 291 201 128 125 42 114 157 51 30 347 301
25 22 14 10 9 9 3 2 360 356 349 349 346 20 6 12 118 62 196 238 293 280 250 191 233 248 224 230 201 221 235 257 161 154 113 137 133 283 326 195 182 95 221 61 122 144 229
19 15 9 7 9 9 2 360 0 358 353 10 354 48 353 3 66 41 224 318 321 308 358 293 251 208 211 185 241 245 230 245 146 152 167 200 153 238 242 78 0 155 195 152 130 230 210
11 12 7 5 7 5 4 1 359 358 358 336 10 310 357 355 56 342 315 308 282 329 340 348 314 303 352 221 291 210 226 359 166 166 169 186 215 349 331 4 23 206 193 137 94 91 198
1 357 354 0 3 4 1 0 0 359 1 16 338 358 337 37 87 51 351 302 311 332 291 340 333 11 352 301 232 285 287 16 300 203 132 152 186 197 209 226 139 198 194 193 170 164 193
349 346 345 347 351 355 360 360 0 4 5 350 4 329 64 350 347 338 323 293 312 330 356 22 87 28 356 298 314 255 8 338 330 348 103 157 223 202 254 258 248 234 230 237 205 228 220
346 347 353 352 348 347 352 358 1 3 10 54 18 355 360 312 308 306 297 17 24 344 332 10 39 347 339 294 344 305 7 297 259 333 87 28 261 151 270 267 257 255 234 247 237 241 247
345 347 345 345 351 354 349 348 356 360 18 34 8 7 33 330 343 353 11 3 1 8 231 63 347 317 304 305 313 278 257 253 252 269 280 250 208 35 267 246 309 270 225 226 230 193 190
350 353 350 353 353 351 352 349 345 346 359 15 14 350 26 310 338 323 340 325 340 7 286 303 307 288 324 319 302 268 247 242 235 230 216 216 173 189 276 291 268 259 226 259 226 230 210
348 349 348 344 347 347 347 345 344 339 331 329 310 344 125 270 286 299 331 9 319 305 280 271 283 324 309 298 300 304 296 271 241 238 231 220 206 233 236 224 281 290 276 188 161 270 220
334 334 332 329 331 333 333 333 334 332 331 316 300 260 188 183 242 220 327 264 259 282 316 273 328 319 350 292 259 249 249 297 298 264 2 178 221 206 158 223 251 254 317 107 115 295 267
330 333 330 326 329 329 327 325 323 319 316 317 288 247 210 225 245 163 203 193 199 209 241 295 311 310 176 241 252 251 251 242 263 254 182 137 177 218 223 243 268 237 174 164 105 254 342
327 324 320 318 316 317 314 312 314 314 313 306 290 276 243 244 235 209 198 197 258 173 195 275 343 338 289 246 254 280 280 359 295 329 226 186 192 197 208 229 256 187 91 198 208 271 337
312 309 309 307 312 313 313 311 307 306 308 305 291 286 260 233 281 302 250 244 236 219 192 188 225 212 246 275 338 335 305 303 310 279 322 277 219 320 237 235 355 15 330 327 332 310 306
Height
865 864 862 861 859 857 855 853 851 849 847 844 840 837 834 831 829 827 825 824 822 820 820 820 820 819 818 819 816 812 812 812 812 812 812 812 813 817 816 818 818 817 810 806 801 797 797
866 865 863 862 860 858 856 854 852 849 847 843 841 838 834 831 828 826 824 822 820 819 818 818 819 818 819 822 812 811 811 811 811 812 812 812 813 815 818 819 819 815 812 804 796 793 792
868 867 865 863 862 859 857 855 852 850 847 844 841 838 834 831 828 825 823 821 819 818 817 817 818 817 818 816 810 810 810 810 811 811 811 812 812 814 817 818 815 814 812 803 794 789 787
869 868 866 864 863 861 859 856 853 850 848 844 841 837 834 830 827 824 821 819 816 816 816 816 817 817 816 810 810 809 809 809 810 811 811 811 812 814 815 816 813 814 816 808 788 788 784
871 870 868 866 864 862 861 857 854 851 848 844 841 837 833 829 825 822 819 816 814 814 814 815 816 815 815 809 809 808 808 808 810 811 811 812 812 815 815 818 817 819 813 811 800 788 788
872 870 869 867 865 863 861 858 855 852 849 845 841 837 833 828 824 821 817 814 813 813 814 815 816 820 810 809 808 807 807 808 809 810 812 813 817 817 822 818 817 812 815 813 809 790 788
872 871 870 868 865 864 861 858 855 852 849 845 840 836 833 828 824 821 817 815 817 816 814 809 809 809 808 807 807 807 807 808 809 812 814 817 818 814 809 813 811 813 820 815 794 789 787
873 872 870 868 866 863 860 857 854 851 847 844 840 836 832 828 824 822 818 820 824 826 819 808 809 809 807 806 807 807 807 810 810 815 815 819 815 805 808 810 812 815 813 806 794 789 789
873 872 870 868 866 863 860 856 852 850 846 842 839 835 831 827 824 824 824 826 825 824 826 809 806 805 805 806 806 806 807 809 812 814 813 815 802 805 804 803 802 805 803 800 796 793 788
873 871 869 867 865 862 859 855 851 849 844 841 838 834 829 826 827 825 826 827 826 825 836 809 806 804 805 805 806 804 804 808 812 812 812 815 804 802 802 801 801 803 794 796 798 795 787
875 873 870 868 865 862 859 855 851 847 843 840 836 833 830 827 827 825 824 824 825 825 856 806 804 804 803 806 806 805 805 807 809 808 812 801 800 801 801 792 796 794 790 796 795 795 800
875 874 871 869 866 862 858 854 850 846 842 838 835 832 829 828 826 825 824 822 825 842 845 804 804 804 805 805 804 804 805 806 808 810 813 809 805 803 797 794 795 791 789 791 803 801 793
877 875 873 870 867 863 859 855 850 845 840 835 831 830 827 826 825 824 824 824 847 851 806 802 802 804 806 803 802 804 805 808 809 815 806 805 799 796 795 795 794 796 798 806 799 798 790
878 875 873 871 868 865 861 856 850 844 838 831 829 826 824 823 824 823 823 834 843 820 809 798 802 805 806 803 803 804 807 811 808 810 826 822 809 794 793 792 794 801 801 815 805 810 805
879 876 874 872 868 864 861 857 851 845 837 830 824 822 820 821 822 824 828 861 837 818 796 799 803 804 802 801 803 804 808 806 801 809 807 818 801 793 794 794 795 799 805 804 806 821 828
879 877 875 873 870 866 861 855 849 844 837 829 825 822 821 822 820 824 834 828 814 801 796 796 802 801 802 799 802 804 800 797 795 804 800 801 806 794 794 795 798 795 805 807 818 809 800
881 878 876 874 871 867 863 857 850 843 836 830 826 826 823 819 821 827 840 833 811 801 799 801 802 801 802 797 802 802 795 791 793 802 801 806 809 799 798 797 796 803 804 812 814 817 807
882 880 878 876 871 868 865 859 853 846 837 831 831 834 826 823 828 840 832 824 816 805 802 802 800 800 800 799 802 805 800 794 796 801 802 805 816 816 794 796 796 793 796 803 806 806 822
882 880 880 877 873 869 865 860 855 849 842 840 838 834 827 826 833 839 835 824 816 811 808 805 804 804 802 798 799 803 798 796 799 799 803 806 813 828 797 797 796 793 796 801 810 812 813
883 882 880 877 873 870 867 863 856 851 845 842 841 842 834 833 839 835 836 831 825 817 811 813 809 808 809 804 804 798 797 800 798 797 795 799 813 799 802 788 790 793 793 800 799 815 802
882 881 880 877 873 870 868 865 860 852 847 846 846 846 843 840 840 840 835 829 829 826 820 820 821 832 831 816 809 804 812 808 799 799 801 804 808 815 804 801 798 792 790 795 799 790 788
882 881 879 876 873 871 868 866 864 859 851 850 854 855 849 850 848 844 836 837 836 838 832 826 837 835 831 826 822 826 825 815 810 804 801 812 805 806 808 796 797 795 796 785 788 780 784
882 880 878 875 873 870 868 867 867 864 860 858 858 857 856 853 854 849 846 847 843 840 833 831 837 836 830 825 826 824 821 818 813 812 808 809 810 811 798 795 798 791 778 772 758 774 769
880 879 878 875 872 871 868 866 866 866 864 863 862 861 862 858 857 855 854 852 849 847 845 837 834 833 827 824 817 811 809 803 798 796 799 802 809 805 797 793 786 752 754 752 755 756 762
878 876 876 876 871 870 868 866 865 864 864 863 862 862 863 864 859 856 853 852 852 848 844 838 834 832 829 825 820 806 797 792 785 785 787 785 792 790 790 794 762 752 743 753 755 744 742
876 875 873 874 871 868 867 866 863 863 862 860 859 860 860 861 859 851 855 853 854 849 845 838 833 830 829 825 817 810 802 789 783 783 791 786 786 784 795 783 775 750 741 740 746 757 727
876 872 872 872 869 866 864 863 861 860 859 858 857 857 856 855 848 850 854 849 847 848 849 843 838 832 827 827 820 813 808 793 794 781 793 789 791 781 776 770 756 743 738 744 743 737 727
872 871 870 869 867 863 861 859 858 857 855 855 853 852 853 846 840 839 841 843 844 847 849 841 841 833 832 827 818 809 808 805 802 796 784 785 785 777 772 769 756 739 741 743 733 731 731
868 869 867 865 862 859 857 855 853 852 851 849 847 846 846 844 837 836 834 831 830 831 836 840 838 835 832 834 833 828 819 822 819 817 789 779 771 779 771 752 745 746 749 742 739 736 731